Change the Weather History Date:

Saturday, November 30, 2013

  Actual Average (KLRD) Record (KLRD)
Temperature  
Mean Temperature 64 °F 61 °F  
Max Temperature 76 °F 71 °F 86 °F (1933)
Min Temperature 52 °F 50 °F 28 °F (1979)
Degree Days  
Heating Degree Days 1 6  
Month to date heating degree days 103  
Since 1 July heating degree days 115  
Cooling Degree Days 0 2  
Month to date cooling degree days 126  
Year to date cooling degree days 4255  
Growing Degree Days 14 (Base 50)    
Moisture  
Dew Point 55 °F    
Average Humidity 74    
Maximum Humidity 95    
Minimum Humidity 46    
Precipitation  
Precipitation 0.00 in 0.03 in 0.98 in (2009)
Month to date precipitation 1.19  
Year to date precipitation 19.32  
Sea Level Pressure  
Sea Level Pressure 30.25 in    
Wind  
Wind Speed 4 mph (SE)    
Max Wind Speed 14 mph    
Max Gust Speed 21 mph    
Visibility 10 miles    
Events      
T = Trace of Precipitation, MM = Missing Value Source: NWS Daily Summary

Daily Weather History Graph

Daily Weather History Graph

Search for Another Location

Airport or City:

Trip Planner

Search our weather history database for the weather conditions in past years. The results will help you decide how hot, cold, wet, or windy it might be!

Date:

Astronomy

Nov. 30, 2013 Rise Set
Actual Time 7:08 AM CST 5:43 PM CST
Civil Twilight 6:43 AM CST 6:08 PM CST
Nautical Twilight 6:14 AM CST 6:36 PM CST
Astronomical Twilight 5:46 AM CST 7:05 PM CST
Moon 4:32 AM CST (11/30) 3:58 PM CST (11/30)
Length of Visible Light 11h 24m
Length of Day
10h 34m
Waning Crescent, 7% of the Moon is Illuminated
Nov 30
Waning Crescent
Dec 2
New
Dec 9
First Quarter
Dec 17
Full
Dec 25
Last Quarter

Hourly Weather History & Observations

Time (CST) Temp. Dew Point Humidity Pressure Visibility Wind Dir Wind Speed Gust Speed Precip Events Conditions
12:15 AM 59.9 °F 54.3 °F 82% 30.34 in 10.0 mi East 3.5 mph - N/A   Overcast
12:35 AM 59.4 °F 54.1 °F 83% 30.34 in 10.0 mi East 3.5 mph - N/A   Overcast
12:55 AM 59.0 °F 54.1 °F 84% 30.33 in 10.0 mi Calm Calm - N/A   Overcast
1:15 AM 58.5 °F 54.5 °F 87% 30.32 in 10.0 mi Calm Calm - N/A   Overcast
1:35 AM 58.1 °F 54.9 °F 89% 30.32 in 10.0 mi East 3.5 mph - N/A   Overcast
1:55 AM 58.1 °F 55.0 °F 90% 30.32 in 10.0 mi Calm Calm - N/A   Overcast
2:15 AM 58.3 °F 55.4 °F 90% 30.31 in 10.0 mi Calm Calm - N/A   Overcast
2:35 AM 58.1 °F 55.4 °F 91% 30.31 in 10.0 mi Calm Calm - N/A   Overcast
2:55 AM 57.7 °F 55.0 °F 91% 30.31 in 10.0 mi Calm Calm - N/A   Overcast
3:15 AM 57.4 °F 54.9 °F 91% 30.30 in 10.0 mi Calm Calm - N/A   Overcast
3:35 AM 57.4 °F 55.0 °F 92% 30.30 in 10.0 mi Calm Calm - N/A   Overcast
3:55 AM 56.8 °F 54.5 °F 92% 30.29 in 10.0 mi East 3.5 mph - N/A   Overcast
4:15 AM 56.5 °F 54.3 °F 92% 30.29 in 10.0 mi East 3.5 mph - N/A   Overcast
4:35 AM 56.8 °F 54.9 °F 93% 30.29 in 10.0 mi ENE 3.5 mph - N/A   Overcast
4:55 AM 57.2 °F 55.0 °F 92% 30.29 in 10.0 mi Calm Calm - N/A   Overcast
5:15 AM 56.3 °F 54.3 °F 93% 30.28 in 10.0 mi Calm Calm - N/A   Mostly Cloudy
5:35 AM 55.6 °F 53.6 °F 93% 30.28 in 7.0 mi Calm Calm - N/A   Mostly Cloudy
5:55 AM 54.9 °F 52.7 °F 92% 30.28 in 7.0 mi Calm Calm - N/A   Mostly Cloudy
6:15 AM 54.1 °F 52.3 °F 94% 30.29 in 7.0 mi Calm Calm - N/A   Mostly Cloudy
6:35 AM 53.1 °F 51.3 °F 94% 30.29 in 5.0 mi Calm Calm - N/A   Scattered Clouds
6:55 AM 52.3 °F 50.7 °F 94% 30.30 in 5.0 mi Calm Calm - N/A   Scattered Clouds
7:15 AM 53.6 °F 52.2 °F 95% 30.30 in 5.0 mi Calm Calm - N/A   Mostly Cloudy
7:35 AM 54.9 °F 53.4 °F 95% 30.30 in 5.0 mi North - - N/A   Overcast
7:55 AM 55.2 °F 53.6 °F 94% 30.30 in 5.0 mi Calm Calm - N/A   Overcast
8:15 AM 56.8 °F 55.2 °F 94% 30.31 in 10.0 mi Calm Calm - N/A   Overcast
8:35 AM 58.6 °F 56.3 °F 92% 30.31 in 10.0 mi ESE 4.6 mph - N/A   Mostly Cloudy
8:55 AM 59.5 °F 55.9 °F 88% 30.31 in 10.0 mi ESE 4.6 mph - N/A   Mostly Cloudy
9:15 AM 64.0 °F 54.7 °F 72% 30.32 in 10.0 mi ESE 3.5 mph - N/A   Overcast
9:35 AM 65.7 °F 54.9 °F 68% 30.32 in 10.0 mi SE 5.8 mph - N/A   Overcast
9:55 AM 66.7 °F 55.6 °F 67% 30.32 in 10.0 mi SE 3.5 mph - N/A   Overcast
10:15 AM 68.2 °F 54.7 °F 62% 30.33 in 10.0 mi Calm Calm - N/A   Mostly Cloudy
10:35 AM 68.2 °F 54.7 °F 62% 30.32 in 10.0 mi SE 4.6 mph - N/A   Overcast
10:55 AM 70.2 °F 55.4 °F 59% 30.32 in 10.0 mi South 5.8 mph - N/A   Overcast
11:15 AM 70.0 °F 55.2 °F 59% 30.31 in 10.0 mi South 4.6 mph - N/A   Overcast
11:35 AM 70.3 °F 55.0 °F 58% 30.30 in 10.0 mi South 5.8 mph - N/A   Mostly Cloudy
11:55 AM 72.9 °F 55.6 °F 55% 30.28 in 10.0 mi South 5.8 mph - N/A   Mostly Cloudy
12:15 PM 73.6 °F 55.6 °F 53% 30.27 in 10.0 mi SSE 8.1 mph - N/A   Scattered Clouds
12:35 PM 74.5 °F 55.4 °F 51% 30.25 in 10.0 mi SE 8.1 mph - N/A   Mostly Cloudy
12:55 PM 72.0 °F 55.4 °F 56% 30.24 in 10.0 mi ESE 8.1 mph - N/A   Overcast
1:15 PM 72.7 °F 55.0 °F 54% 30.22 in 10.0 mi ESE 11.5 mph 16.1 mph N/A   Overcast
1:35 PM 72.7 °F 54.9 °F 53% 30.21 in 10.0 mi ESE 8.1 mph - N/A   Mostly Cloudy
1:55 PM 73.4 °F 54.3 °F 51% 30.20 in 10.0 mi SE 8.1 mph - N/A   Mostly Cloudy
2:15 PM 75.0 °F 54.5 °F 49% 30.19 in 10.0 mi SE 11.5 mph 16.1 mph N/A   Mostly Cloudy
2:35 PM 74.8 °F 54.0 °F 48% 30.18 in 10.0 mi SE 8.1 mph - N/A   Mostly Cloudy
2:55 PM 73.8 °F 54.3 °F 51% 30.18 in 10.0 mi SE 6.9 mph - N/A   Overcast
3:15 PM 76.5 °F 54.0 °F 46% 30.17 in 10.0 mi ESE 10.4 mph - N/A   Mostly Cloudy
3:35 PM 75.0 °F 54.1 °F 48% 30.17 in 10.0 mi SE 10.4 mph 18.4 mph N/A   Overcast
3:55 PM 75.2 °F 54.3 °F 48% 30.16 in 10.0 mi ESE 9.2 mph 20.7 mph N/A   Overcast
4:15 PM 75.4 °F 54.0 °F 47% 30.15 in 10.0 mi SE 10.4 mph 20.7 mph N/A   Overcast
4:35 PM 74.7 °F 54.3 °F 49% 30.15 in 10.0 mi SE 9.2 mph - N/A   Overcast
4:55 PM 72.5 °F 54.0 °F 52% 30.15 in 10.0 mi ESE 10.4 mph - N/A   Scattered Clouds
5:15 PM 72.5 °F 54.5 °F 53% 30.15 in 10.0 mi ESE 11.5 mph - N/A   Scattered Clouds
5:35 PM 70.0 °F 57.2 °F 64% 30.16 in 10.0 mi ESE 13.8 mph 18.4 mph N/A   Clear
5:55 PM 68.9 °F 57.4 °F 67% 30.16 in 10.0 mi ESE 9.2 mph - N/A   Clear
6:15 PM 67.8 °F 57.4 °F 69% 30.17 in 10.0 mi ESE 8.1 mph - N/A   Clear
6:35 PM 67.3 °F 57.4 °F 70% 30.19 in 10.0 mi ESE 12.7 mph - N/A   Clear
7:15 PM 66.6 °F 57.2 °F 72% 30.20 in 10.0 mi East 9.2 mph - N/A   Overcast
7:35 PM 65.8 °F 56.8 °F 73% 30.20 in 10.0 mi ESE 10.4 mph - N/A   Overcast
7:55 PM 65.3 °F 56.7 °F 74% 30.21 in 10.0 mi ESE 10.4 mph - N/A   Overcast
8:15 PM 64.9 °F 56.5 °F 74% 30.20 in 10.0 mi ESE 11.5 mph 17.3 mph N/A   Overcast
8:35 PM 64.6 °F 56.3 °F 74% 30.21 in 10.0 mi ESE 9.2 mph 16.1 mph N/A   Overcast
8:55 PM 63.9 °F 56.3 °F 76% 30.21 in 10.0 mi SE 6.9 mph - N/A   Mostly Cloudy
9:15 PM 63.7 °F 56.3 °F 77% 30.21 in 10.0 mi ESE 5.8 mph - N/A   Overcast
9:35 PM 63.3 °F 56.3 °F 78% 30.21 in 10.0 mi SE 5.8 mph - N/A   Overcast
9:55 PM 62.8 °F 56.3 °F 79% 30.21 in 10.0 mi ESE 6.9 mph - N/A   Mostly Cloudy
10:15 PM 62.6 °F 56.3 °F 80% 30.22 in 10.0 mi ESE 5.8 mph - N/A   Mostly Cloudy
10:35 PM 63.0 °F 56.3 °F 79% 30.23 in 10.0 mi SSE 3.5 mph - N/A   Mostly Cloudy
10:55 PM 62.6 °F 56.5 °F 80% 30.22 in 10.0 mi SSE 3.5 mph - N/A   Overcast
11:15 PM 62.1 °F 56.5 °F 82% 30.21 in 10.0 mi SE 3.5 mph - N/A   Overcast
11:35 PM 61.9 °F 56.7 °F 83% 30.20 in 10.0 mi SE 3.5 mph - N/A   Mostly Cloudy
11:55 PM 61.0 °F 56.7 °F 86% 30.20 in 10.0 mi Calm Calm - N/A   Mostly Cloudy